Date String (YYYY-MM-DD hh:mm:ss) UTC,Instrument flags,Ambient pressure (hPa),Sample flow (lpm),Bypass flow (lpm),Sample temperature (°C),Ambient temperature (°C),ASC tube jacket temperature (°C),LED temperature (°C),Box temperature (°C),Sample RH (%),Span deviation,Mass concentration (μg/m³),Mass concentration (μg/m³),Mass concentration (μg/m³)
DateTimeUTC,F1_M11,P_M11,Q1_M11,Q2_M11,T1_M11,T2_M11,T3_M11,T4_M11,T5_M11,U1_M11,ZSPAN_M11,X0_M11,X2_M11,X1_M11
2021-11-10 23:00:00,,0824.7,5.01,0.00,26.2,25.3,00.0,35.3,28.0,09.3,0000.0,0004.20,0001.94,0001.40
2021-11-10 23:01:00,,0824.7,5.00,0.00,26.2,25.3,00.0,35.3,27.9,09.4,0000.0,0004.00,0001.94,0001.41
2021-11-10 23:02:00,,0824.7,4.98,0.00,26.2,25.3,00.0,35.3,27.9,09.3,0000.0,0003.72,0001.90,0001.41
2021-11-10 23:03:00,,0824.7,5.01,0.00,26.2,25.3,00.0,35.3,27.9,09.0,0000.0,0003.43,0001.83,0001.41
2021-11-10 23:04:00,,0824.7,5.01,0.00,26.2,25.4,00.0,35.3,28.0,08.9,0000.0,0003.30,0001.81,0001.42
2021-11-10 23:05:00,,0824.7,4.99,0.00,26.2,25.4,00.0,35.3,28.0,08.8,0000.0,0003.25,0001.81,0001.43
2021-11-10 23:06:00,,0824.8,5.01,0.00,26.2,25.4,00.0,35.3,27.9,09.0,0000.0,0002.90,0001.81,0001.43
2021-11-10 23:07:00,,0824.6,4.99,0.00,26.2,25.4,00.0,35.3,27.9,09.0,0000.0,0002.58,0001.81,0001.44
2021-11-10 23:08:00,,0824.5,5.00,0.00,26.2,25.4,00.0,35.3,27.9,08.8,0000.0,0002.62,0001.81,0001.45
2021-11-10 23:09:00,,0824.6,5.01,0.00,26.2,25.3,00.0,35.3,27.9,08.7,0000.0,0002.53,0001.81,0001.46
2021-11-10 23:10:00,,0824.6,5.01,0.00,26.2,25.3,00.0,35.3,27.9,08.8,0000.0,0002.59,0001.85,0001.49
2021-11-10 23:11:00,,0824.5,4.99,0.00,26.2,25.3,00.0,35.3,28.0,08.7,0000.0,0002.66,0001.87,0001.50
2021-11-10 23:12:00,,0824.5,5.00,0.00,26.2,25.2,00.0,35.3,28.0,08.7,0000.0,0002.73,0001.90,0001.51
2021-11-10 23:13:00,,0824.6,5.00,0.00,26.2,25.2,00.0,35.3,28.0,08.7,0000.0,0002.81,0001.95,0001.52
2021-11-10 23:14:00,,0824.5,5.00,0.00,26.2,25.2,00.0,35.3,27.9,08.7,0000.0,0002.93,0002.02,0001.55
2021-11-10 23:15:00,,0824.6,5.00,0.00,26.1,25.2,00.0,35.2,27.9,08.7,0000.0,0003.03,0002.08,0001.58
2021-11-10 23:16:00,,0824.6,4.99,0.00,26.1,25.2,00.0,35.2,27.8,08.8,0000.0,0003.76,0002.09,0001.59
2021-11-10 23:17:00,,0824.6,5.00,0.00,26.1,25.1,00.0,35.2,27.8,08.8,0000.0,0004.32,0002.09,0001.60
2021-11-10 23:18:00,,0824.6,5.00,0.00,26.1,25.1,00.0,35.2,27.9,08.8,0000.0,0004.48,0002.11,0001.60
2021-11-10 23:19:00,,0824.7,5.01,0.00,26.1,25.1,00.0,35.2,27.9,08.8,0000.0,0004.85,0002.15,0001.61
2021-11-10 23:20:00,,0824.7,5.00,0.00,26.1,25.0,00.0,35.2,27.8,08.7,0000.0,0004.82,0002.17,0001.62
2021-11-10 23:21:00,,0824.7,4.99,0.00,26.1,25.0,00.0,35.2,27.8,08.8,0000.0,0004.91,0002.17,0001.61
2021-11-10 23:22:00,,0824.6,5.02,0.00,26.1,25.0,00.0,35.2,27.8,08.8,0000.0,0006.15,0002.21,0001.62
2021-11-10 23:23:00,,0824.7,5.01,0.00,26.1,25.0,00.0,35.1,27.8,08.8,0000.0,0006.27,0002.17,0001.61
2021-11-10 23:24:00,,0824.7,5.00,0.00,26.0,25.0,00.0,35.1,27.7,08.9,0000.0,0006.22,0002.14,0001.61
2021-11-10 23:25:00,,0824.8,5.00,0.00,26.0,24.9,00.0,35.1,27.7,08.9,0000.0,0006.24,0002.14,0001.61
2021-11-10 23:26:00,,0824.6,5.00,0.00,26.0,25.0,00.0,35.1,27.7,08.9,0000.0,0006.22,0002.12,0001.61
2021-11-10 23:27:00,,0824.6,5.00,0.00,26.0,24.9,00.0,35.1,27.7,08.8,0000.0,0006.18,0002.13,0001.62
2021-11-10 23:28:00,,0824.6,5.00,0.00,26.0,24.9,00.0,35.1,27.8,08.8,0000.0,0005.49,0002.14,0001.63
2021-11-10 23:29:00,,0824.6,5.01,0.00,26.0,24.9,00.0,35.1,27.8,08.8,0000.0,0005.34,0002.10,0001.63
2021-11-10 23:30:00,,0824.8,4.99,0.00,26.0,24.9,00.0,35.1,27.7,08.9,0000.0,0004.95,0002.08,0001.64
2021-11-10 23:31:00,,0824.8,5.01,0.00,25.9,24.9,00.0,35.0,27.7,08.9,0000.0,0004.91,0002.07,0001.65
2021-11-10 23:32:00,,0824.8,5.01,0.00,25.9,24.9,00.0,35.0,27.6,09.0,0000.0,0004.81,0002.06,0001.66
2021-11-10 23:33:00,,0824.7,4.99,0.00,25.9,24.9,00.0,35.0,27.6,09.0,0000.0,0003.74,0002.05,0001.67
2021-11-10 23:34:00,,0824.8,4.99,0.00,25.9,24.9,00.0,35.0,27.5,09.0,0000.0,0003.54,0002.11,0001.69
2021-11-10 23:35:00,,0824.9,5.01,0.00,25.8,24.8,00.0,35.0,27.4,09.0,0000.0,0003.62,0002.14,0001.69
2021-11-10 23:36:00,,0824.9,4.98,0.00,25.8,24.8,00.0,35.0,27.3,08.9,0000.0,0003.59,0002.13,0001.69
2021-11-10 23:37:00,,0824.9,5.01,0.00,25.8,24.7,00.0,35.0,27.4,09.0,0000.0,0003.77,0002.11,0001.68
2021-11-10 23:38:00,,0824.9,5.01,0.00,25.8,24.7,00.0,34.9,27.4,08.9,0000.0,0004.04,0002.12,0001.69
2021-11-10 23:39:00,,0824.9,4.99,0.00,25.8,24.7,00.0,34.9,27.4,08.9,0000.0,0005.10,0002.09,0001.69
2021-11-10 23:40:00,,0824.9,4.99,0.00,25.8,24.7,00.0,34.9,27.5,09.1,0000.0,0005.29,0002.14,0001.71
2021-11-10 23:41:00,,0824.9,5.00,0.00,25.8,24.8,00.0,34.9,27.5,09.2,0000.0,0005.37,0002.15,0001.72
2021-11-10 23:42:00,,0824.9,4.99,0.00,25.8,24.8,00.0,34.9,27.5,09.3,0000.0,0005.46,0002.18,0001.72
2021-11-10 23:43:00,,0825.0,5.02,0.00,25.8,24.8,00.0,34.9,27.5,09.3,0000.0,0005.52,0002.18,0001.73
2021-11-10 23:44:00,,0825.0,4.99,0.00,25.8,24.8,00.0,34.9,27.6,09.4,0000.0,0005.45,0002.15,0001.73
2021-11-10 23:45:00,,0825.0,5.02,0.00,25.8,24.8,00.0,34.9,27.6,09.2,0000.0,0005.29,0002.12,0001.73
2021-11-10 23:46:00,,0824.9,5.00,0.00,25.8,24.9,00.0,34.9,27.5,09.2,0000.0,0005.36,0002.15,0001.76
2021-11-10 23:47:00,,0824.9,5.00,0.00,25.8,24.9,00.0,34.9,27.5,08.8,0000.0,0005.56,0002.23,0001.80
2021-11-10 23:48:00,,0824.9,5.00,0.00,25.8,24.9,00.0,34.9,27.4,08.7,0000.0,0005.67,0002.27,0001.83
2021-11-10 23:49:00,,0825.0,5.00,0.00,25.8,24.8,00.0,34.9,27.5,08.6,0000.0,0005.30,0002.33,0001.86
2021-11-10 23:50:00,,0825.0,5.00,0.00,25.8,24.8,00.0,34.9,27.5,08.6,0000.0,0004.21,0002.38,0001.88
2021-11-10 23:51:00,,0824.9,5.01,0.00,25.8,24.8,00.0,34.9,27.4,08.5,0000.0,0003.92,0002.42,0001.91
2021-11-10 23:52:00,,0824.8,4.99,0.00,25.8,24.8,00.0,34.9,27.5,08.5,0000.0,0003.96,0002.45,0001.93
2021-11-10 23:53:00,,0824.7,5.01,0.00,25.8,24.7,00.0,34.9,27.6,08.4,0000.0,0004.02,0002.52,0001.98
2021-11-10 23:54:00,,0824.8,5.00,0.00,25.8,24.7,00.0,34.9,27.6,08.4,0000.0,0004.05,0002.57,0002.03
2021-11-10 23:55:00,,0824.8,4.99,0.00,25.8,24.7,00.0,34.9,27.5,08.5,0000.0,0004.25,0002.67,0002.08
2021-11-10 23:56:00,,0824.8,4.99,0.00,25.7,24.7,00.0,34.9,27.5,08.5,0000.0,0004.47,0002.76,0002.11
2021-11-10 23:57:00,,0824.7,5.00,0.00,25.7,24.7,00.0,34.9,27.5,08.5,0000.0,0004.47,0002.80,0002.14
2021-11-10 23:58:00,,0824.8,5.00,0.00,25.7,24.7,00.0,34.9,27.5,08.5,0000.0,0004.51,0002.84,0002.17
2021-11-10 23:59:00,,0824.9,5.00,0.00,25.7,24.6,00.0,34.8,27.4,08.4,0000.0,0004.18,0002.85,0002.20
